[[{"header":{"parameterUnit":"m.s-1","parameterCategory":1,"la1":30.2991,"la2":30.254,"lo1":-89.0895,"lo2":-89.0444,"dy":0.0017,"dx":0.0017,"nx":28,"ny":28,"refTime":"2025-06-08T09:00:00:Z","depth":0,"parameterNumber":2,"parameterNumberName":"U-component_of_WINDS"},"data":[0,0,0,0,0,0,0,0,0,0,0,0,0,0,0,0,0,0,0,0,0,0,0,0,0,0,0,0,0,0,0,0,0,0,0,0,0,0,0,0,0,0,0,0,0,0,0,0,0,0,0,0,0,0,0,0,0,0,5.1221,5.1222,0,5.1317,5.1318,5.132,5.1306,5.1304,5.1302,5.1301,5.14,5.1404,5.1408,0,0,0,0,0,0,0,0,0,0,0,0,0,5.1026,5.103,5.1221,5.1222,5.1224,5.1317,5.1319,5.132,5.1306,5.1304,5.1302,5.13,5.1398,5.1403,5.1408,0,0,0,0,0,0,0,0,0,0,0,0,0,5.1115,5.1031,5.1221,5.1228,5.123,5.1317,5.1319,5.132,5.1306,5.1304,5.1301,5.1299,5.1397,5.1403,5.1409,5.1496,0,0,5.1428,5.1431,0,0,0,0,0,0,0,0,5.111,5.1123,5.1226,5.1228,5.123,5.1297,5.1286,5.1379,5.1307,5.1277,5.1301,5.1298,5.1368,5.1376,5.1399,5.15,5.1504,5.1428,5.1432,5.1435,5.1437,0,0,0,0,0,0,0,5.1104,5.1118,5.1259,5.1227,5.123,5.1226,5.1236,5.1304,5.1335,5.128,5.1279,5.129,5.1368,5.1393,5.1402,5.1506,5.1428,5.1434,5.1438,5.144,5.1683,5.1685,0,0,0,0,0,0,5.1096,5.1113,5.1256,5.1262,5.1163,5.1232,5.1243,5.1278,5.1334,5.134,5.1292,5.1289,5.1384,5.1394,5.1405,5.151,5.1435,5.1441,5.1444,5.168,5.1683,5.1686,0,0,0,0,0,0,5.1092,5.1109,5.1252,5.1188,5.1206,5.1238,5.1277,5.1281,5.1306,5.1344,5.1349,5.1312,5.1382,5.1396,5.1473,5.1513,5.1443,5.1449,5.1677,5.1681,5.1685,5.172,0,0,0,0,0,0,5.1086,5.1108,5.1141,5.1188,5.1209,5.1319,5.1279,5.1285,5.1317,5.1314,5.1364,5.137,5.1382,5.1464,5.1479,5.152,5.1454,5.1673,5.1679,5.1683,5.1715,5.1725,5.1733,0,0,0,0,0,5.1079,5.1147,5.1142,5.116,5.1251,5.1321,5.1333,5.1345,5.132,5.1354,5.1378,5.1368,5.1506,5.1472,5.1489,5.1532,5.1671,5.1677,5.1683,5.1711,5.1723,5.1733,0,0,0,0,0,0,5.1103,5.1153,5.1149,5.1234,5.1273,5.1319,5.1361,5.1357,5.1404,5.1399,5.1413,5.1424,5.1502,5.1525,5.1486,5.1619,5.1585,5.1595,5.1601,5.1612,5.1621,5.1613,5.1459,0,0,0,0,0,5.1118,5.117,5.1212,5.1283,5.1303,5.1329,5.136,5.1366,5.1407,5.1424,5.1453,5.1494,5.1547,5.1581,5.1631,5.1719,5.173,5.1758,5.1766,5.1773,5.1781,5.1829,5.1842,5.1706,5.1706,5.1706,0,0,5.1149,5.1184,5.1216,5.1288,5.1319,5.1373,5.1343,5.1401,5.1441,5.1433,5.1506,5.153,5.1576,5.1659,5.1697,5.1681,5.1821,5.1781,5.1786,5.1791,5.1837,5.1849,5.1861,5.171,5.171,5.1709,0,0,5.1234,5.1266,5.1328,5.136,5.1408,5.1425,5.144,5.1486,5.1501,5.1576,5.157,5.1619,5.1709,5.1742,5.1771,5.1869,5.1862,5.1885,5.193,5.1976,5.1987,5.1997,5.2031,5.2043,5.1893,5.1893,5.1893,0,5.1267,5.1348,5.136,5.142,5.1452,5.1446,5.1509,5.154,5.1602,5.1624,5.1606,5.1719,5.175,5.184,5.1863,5.1887,5.1904,5.1879,5.1985,5.1994,5.2003,5.2036,5.2049,5.1896,5.1895,5.1895,5.1895,0,5.1386,5.1443,5.1487,5.1547,5.1584,5.1645,5.1667,5.1703,5.1706,5.1725,5.1801,5.1838,5.1896,5.1918,5.1921,5.2008,5.1997,5.1981,5.1947,5.2018,5.2049,5.2062,5.1899,5.1898,5.1898,5.1897,0,0,5.1487,5.1553,5.1569,5.1596,5.1649,5.1693,5.1754,5.181,5.1841,5.1884,5.1935,5.2012,5.1998,5.2031,5.2038,5.2079,5.2153,5.2059,5.206,5.2074,5.2251,5.2261,5.2275,5.215,5.2152,5.2154,5.2246,0,5.1576,5.1683,5.1696,5.1792,5.1844,5.184,5.1893,5.1931,5.1951,5.1998,5.202,5.2074,5.2052,5.2071,5.2111,5.2136,5.2189,5.213,5.2197,5.2199,5.2184,5.2292,5.2303,5.2388,5.2259,5.2261,5.2262,0,5.1694,5.174,5.1841,5.1886,5.1909,5.1956,5.2009,5.2054,5.2097,5.2109,5.2146,5.2148,5.2211,5.2175,5.2262,5.2221,5.2249,5.2266,5.2269,5.2275,5.2234,5.2299,5.2416,5.2428,5.2282,5.228,5.2279,0,5.1756,5.1844,5.1915,5.1939,5.1994,5.2027,5.2052,5.2093,5.2126,5.2172,5.2194,5.2247,5.2276,5.2317,5.2334,5.2306,5.2419,5.2385,5.243,5.2429,5.2452,5.2451,5.2574,5.2473,5.2473,5.2473,5.2473,0,5.1853,5.1915,5.1944,5.1988,5.2056,5.2071,5.2139,5.2162,5.2199,5.2247,5.2248,5.2293,5.2313,5.2361,5.2375,5.2444,5.2457,5.2468,5.247,5.2467,5.2465,5.2485,5.2479,5.2476,5.2475,5.2475,5.2474,0,5.1934,5.1956,5.2033,5.208,5.2093,5.2141,5.2181,5.2223,5.2243,5.2303,5.2319,5.2349,5.2406,5.2427,5.2497,5.2506,5.2586,5.2584,5.2571,5.2571,5.2614,5.2609,5.2753,5.2772,5.266,5.2661,5.2662,0,5.1994,5.2041,5.2092,5.2124,5.215,5.2202,5.2236,5.2253,5.2288,5.2341,5.2377,5.2434,5.248,5.2571,5.2599,5.2653,5.2651,5.2698,5.2659,5.2654,5.2651,5.2647,5.2651,5.2705,5.2706,5.2707,5.2708,0,5.2097,5.2106,5.2155,5.2207,5.2248,5.229,5.2331,5.2358,5.2381,5.242,5.2478,5.2514,5.2585,5.2641,5.2696,5.2721,5.2718,5.272,5.2733,5.2729,5.2719,5.2724,5.2589,5.2716,5.2716,5.2715,5.2714,5.2714,5.2168,5.221,5.2253,5.2307,5.2339,5.2378,5.242,5.2445,5.2494,5.2552,5.256,5.2622,5.2664,5.2737,5.2765,5.2814,5.2801,5.282,5.2825,5.2829,5.2831,5.2713,5.2824,5.2824,5.2824,5.2824,5.2824,0,5.2271,5.2298,5.2348,5.2405,5.2448,5.2443,5.2488,5.2524,5.2578,5.2618,5.2664,5.273,5.2785,5.2818,5.2873,5.2905,5.2906,5.2919,5.2916,5.2922,5.284,5.2823,5.2918,5.2918,5.2918,5.2918,5.2918,5.2918,5.2329,5.2399,5.2413,5.2499,5.2526,5.2587,5.2613,5.2648,5.268,5.2754,5.28,5.2821,5.2858,5.2916,5.2965,5.2974,5.2993,5.3008,5.3014,5.2937,5.2928,5.2918,5.2902,5.3012,5.3012,5.3092,5.3092,5.3093]},{"header":{"parameterUnit":"m.s-1","parameterCategory":1,"la1":30.2991,"la2":30.254,"lo1":-89.0895,"lo2":-89.0444,"dy":0.0017,"dx":0.0017,"nx":28,"ny":28,"refTime":"2025-06-08T09:00:00:Z","depth":0,"parameterNumber":3,"parameterNumberName":"V-component_of_WINDS"},"data":[0,0,0,0,0,0,0,0,0,0,0,0,0,0,0,0,0,0,0,0,0,0,0,0,0,0,0,0,0,0,0,0,0,0,0,0,0,0,0,0,0,0,0,0,0,0,0,0,0,0,0,0,0,0,0,0,0,0,2.0711,2.0712,0,2.0755,2.0756,2.0756,2.0752,2.0751,2.075,2.075,2.0793,2.0795,2.0797,0,0,0,0,0,0,0,0,0,0,0,0,0,2.0621,2.0623,2.0711,2.0712,2.0712,2.0755,2.0756,2.0756,2.0752,2.0751,2.075,2.0749,2.0793,2.0795,2.0797,0,0,0,0,0,0,0,0,0,0,0,0,0,2.0662,2.0623,2.0711,2.0715,2.0716,2.0755,2.0756,2.0756,2.0752,2.0751,2.075,2.0749,2.0792,2.0795,2.0797,2.0834,0,0,2.0806,2.0807,0,0,0,0,0,0,0,0,2.066,2.0665,2.0714,2.0715,2.0716,2.0747,2.074,2.0782,2.0752,2.0738,2.075,2.0749,2.0779,2.0782,2.0793,2.0836,2.0838,2.0806,2.0807,2.0809,2.0809,0,0,0,0,0,0,0,2.0657,2.0663,2.0728,2.0715,2.0716,2.0714,2.0719,2.0748,2.0764,2.0739,2.0739,2.0745,2.0779,2.079,2.0794,2.0839,2.0806,2.0808,2.081,2.0811,2.0914,2.0915,0,0,0,0,0,0,2.0653,2.0661,2.0727,2.073,2.0685,2.0717,2.0722,2.0738,2.0763,2.0766,2.0745,2.0744,2.0786,2.0791,2.0795,2.084,2.0809,2.0811,2.0813,2.0913,2.0914,2.0915,0,0,0,0,0,0,2.0651,2.0659,2.0725,2.0695,2.0704,2.0719,2.0737,2.0739,2.0751,2.0768,2.077,2.0754,2.0785,2.0791,2.0824,2.0841,2.0812,2.0815,2.0911,2.0913,2.0915,2.0929,0,0,0,0,0,0,2.0649,2.0659,2.0673,2.0696,2.0705,2.0754,2.0738,2.0741,2.0756,2.0754,2.0777,2.0779,2.0785,2.082,2.0827,2.0844,2.0817,2.091,2.0912,2.0914,2.0927,2.0931,2.0934,0,0,0,0,0,2.0646,2.0676,2.0674,2.0682,2.0724,2.0755,2.0761,2.0767,2.0757,2.0771,2.0782,2.0779,2.0838,2.0824,2.0831,2.0849,2.0909,2.0911,2.0914,2.0925,2.093,2.0934,0,0,0,0,0,0,2.0654,2.0679,2.0677,2.0716,2.0734,2.0755,2.0773,2.0772,2.0793,2.0791,2.0797,2.0803,2.0836,2.0846,2.083,2.0886,2.0872,2.0876,2.0878,2.0883,2.0886,2.0883,2.0819,0,0,0,0,0,2.0661,2.0685,2.0704,2.0736,2.0745,2.0758,2.0772,2.0775,2.0794,2.0801,2.0814,2.0832,2.0854,2.0869,2.0891,2.0928,2.0933,2.0944,2.0948,2.0951,2.0954,2.0974,2.0979,2.0923,2.0923,2.0923,0,0,2.0674,2.0691,2.0705,2.0738,2.0753,2.0776,2.0764,2.079,2.0808,2.0805,2.0837,2.0847,2.0867,2.0902,2.0918,2.0912,2.097,2.0954,2.0956,2.0958,2.0977,2.0982,2.0987,2.0925,2.0925,2.0925,0,0,2.0711,2.0726,2.0754,2.0768,2.079,2.0798,2.0805,2.0826,2.0833,2.0865,2.0863,2.0883,2.0922,2.0936,2.0949,2.099,2.0987,2.0996,2.1015,2.1034,2.1038,2.1042,2.1056,2.1061,2.1,2.1,2.1,0,2.0725,2.0762,2.0768,2.0794,2.0808,2.0807,2.0835,2.0848,2.0876,2.0885,2.0878,2.0926,2.0939,2.0977,2.0987,2.0997,2.1004,2.0994,2.1037,2.1041,2.1045,2.1058,2.1063,2.1001,2.1001,2.1001,2.1001,0,2.0777,2.0802,2.0822,2.0849,2.0865,2.0892,2.0902,2.0917,2.0919,2.0927,2.0959,2.0975,2.1,2.1009,2.1011,2.1047,2.1042,2.1036,2.1022,2.1051,2.1063,2.1069,2.1002,2.1002,2.1002,2.1001,0,0,2.0821,2.0851,2.0858,2.087,2.0893,2.0912,2.0938,2.0963,2.0976,2.0994,2.1016,2.1048,2.1042,2.1056,2.1059,2.1076,2.1106,2.1068,2.1068,2.1074,2.1146,2.115,2.1156,2.1105,2.1106,2.1106,2.1144,0,2.0859,2.0906,2.0913,2.0954,2.0977,2.0975,2.0998,2.1014,2.1022,2.1042,2.1051,2.1074,2.1065,2.1073,2.1089,2.1099,2.1121,2.1097,2.1124,2.1125,2.1118,2.1163,2.1168,2.1202,2.1149,2.115,2.115,0,2.0911,2.0931,2.0975,2.0994,2.1004,2.1024,2.1047,2.1066,2.1084,2.1089,2.1104,2.1105,2.1131,2.1116,2.1151,2.1134,2.1146,2.1152,2.1154,2.1156,2.1139,2.1166,2.1214,2.1219,2.1158,2.1158,2.1157,0,2.0937,2.0976,2.1007,2.1017,2.1041,2.1055,2.1065,2.1082,2.1096,2.1115,2.1124,2.1146,2.1158,2.1174,2.1181,2.1169,2.1215,2.1201,2.1219,2.1219,2.1229,2.1228,2.1278,2.1237,2.1237,2.1237,2.1236,0,2.098,2.1006,2.1019,2.1038,2.1067,2.1073,2.1102,2.1112,2.1127,2.1147,2.1147,2.1165,2.1173,2.1192,2.1197,2.1225,2.1231,2.1235,2.1236,2.1235,2.1234,2.1242,2.1239,2.1238,2.1238,2.1237,2.1237,0,2.1014,2.1024,2.1057,2.1077,2.1083,2.1103,2.112,2.1137,2.1145,2.1171,2.1177,2.1189,2.1212,2.122,2.1248,2.1251,2.1283,2.1282,2.1277,2.1277,2.1295,2.1293,2.1352,2.1359,2.1313,2.1314,2.1314,0,2.104,2.1061,2.1083,2.1096,2.1107,2.1129,2.1143,2.115,2.1165,2.1186,2.1201,2.1224,2.1243,2.1279,2.129,2.1311,2.131,2.1329,2.1313,2.1311,2.131,2.1308,2.131,2.1332,2.1333,2.1333,2.1333,0,2.1085,2.1089,2.111,2.1132,2.1149,2.1166,2.1184,2.1195,2.1204,2.122,2.1244,2.1258,2.1286,2.1308,2.133,2.134,2.1338,2.1338,2.1344,2.1342,2.1338,2.134,2.1285,2.1337,2.1337,2.1336,2.1336,2.1336,2.1116,2.1133,2.1152,2.1174,2.1188,2.1204,2.1221,2.1231,2.1251,2.1275,2.1278,2.1303,2.1319,2.1348,2.1358,2.1378,2.1372,2.138,2.1382,2.1383,2.1384,2.1336,2.1382,2.1381,2.1381,2.1381,2.1381,0,2.116,2.1171,2.1192,2.1216,2.1234,2.1231,2.125,2.1265,2.1287,2.1303,2.1321,2.1348,2.1369,2.1381,2.1403,2.1415,2.1415,2.1421,2.142,2.1422,2.1388,2.1381,2.1421,2.1421,2.1421,2.1421,2.1421,2.1421,2.1185,2.1215,2.122,2.1256,2.1267,2.1292,2.1303,2.1317,2.133,2.1359,2.1377,2.1386,2.14,2.1422,2.1441,2.1444,2.1451,2.1457,2.146,2.1428,2.1424,2.142,2.1414,2.1459,2.1459,2.1491,2.1492,2.1492]}]]